User: anonymous
Location: Unspecified
(0.0000°N, 0.0000°E)
Time: 13:05:10
(UTC+02:00)
Language:

Delta 168 - Orbit

View from above orbital plane
View from above orbital plane
View from above satellite
View from above satellite

Ground track
Ground track

The orbit data is extracted from the following two-line orbital elements,

1 14051U 83041B   14237.76323472  .00003251  00000-0  30921-3 0  5881
2 14051 025.3328 049.6396 1128430 018.8209 049.9399 13.01335286444142
Epoch (UTC): 25 August 2014 18:19:03
Eccentricity: 0.1128430
inclination: 25.3328°
perigee height: 395 km
apogee height: 2118 km
right ascension of ascending node: 49.6396°
argument of perigee: 18.8209°
revolutions per day: 13.01335286
mean anomaly at epoch: 49.9399°
orbit number at epoch: 44414

The dashed part of the orbit path shows where the satellite is in the earth's shadow,  

DLR